Home   Weather   Fayetteville   Past weeks

Flag for USA Past Weather in Fayetteville, North Carolina, USA — Yesterday and Last 2 Weeks

Now
49 °F

Clear.


Feels Like: 47 °F
Forecast: 37 / 54 °F
Wind: 5 mph from Southwest

Location: Fayetteville Regional Airport

Current Time: Dec 2, 2016 at 7:27:10 pm

Latest Report: Dec 2, 2016 at 6:53 pm


Visibility: 10 mi

Pressure: 30.11 "Hg

Humidity: 64%

Dew Point: 37 °F

Location of FayettevilleLocation

Past Weather in Fayetteville — Graph

°F

Fayetteville Temperature Yesterday

Maximum temperature yesterday: 70 °F (at 12:53 am)
Minimum temperature yesterday: 48 °F (at 11:53 pm)
Average temperature yesterday: 61 °F

High & Low Weather Summary for the Past Weeks

 TemperatureHumidityPressure
High78 °F (Nov 30, 12:53 pm)100% (Nov 29, 8:53 pm)30.36 "Hg (Nov 29, 8:53 pm)
Low29 °F (Nov 23, 2:53 am)14% (Nov 21, 11:53 am)29.70 "Hg (Nov 30, 11:53 pm)
Average54 °F65%30.09 "Hg
* Reported Nov 17 5:53 pm — Dec 2 5:53 pm, Fayetteville, Weather by CustomWeather, © 2016

Note: Actual official high and low records may vary slightly from our data, if they occured in-between our weather recording intervals... More about our weather records

Advertising

Fayetteville Weather History for the Previous 24 Hours

Scroll right to see more
 ConditionsComfort  
Time TempWeatherWind HumidityBarometerVisibility
5:53 pm
Fri, Dec 2
52 °FClear.6 mph53%30.11 "Hg10 mi
4:53 pm56 °FSunny.8 mph44%30.10 "Hg10 mi
3:53 pm58 °FSunny.10 mph36%30.09 "Hg10 mi
2:53 pm59 °FSunny.13 mph35%30.08 "Hg10 mi
1:53 pm58 °FSunny.5 mph36%30.08 "Hg10 mi
12:53 pm56 °FSunny.6 mph39%30.10 "Hg10 mi
11:53 am55 °FSunny.12 mph40%30.13 "Hg10 mi
10:53 am54 °FSunny.7 mph43%30.15 "Hg10 mi
9:53 am51 °FSunny.8 mph46%30.16 "Hg10 mi
8:53 am47 °FSunny.No wind61%30.14 "Hg10 mi
7:53 am40 °FSunny.3 mph86%30.12 "Hg10 mi
6:53 am38 °FClear.No wind86%30.10 "Hg10 mi
5:53 am40 °FClear.No wind77%30.08 "Hg10 mi
4:53 am42 °FClear.3 mph71%30.06 "Hg10 mi
3:53 am42 °FClear.5 mph71%30.03 "Hg10 mi
2:53 am46 °FClear.13 mph63%30.02 "Hg10 mi
1:53 am45 °FClear.8 mph68%30.00 "Hg10 mi
12:53 am48 °FClear.7 mph63%29.99 "Hg10 mi
11:53 pm
Thu, Dec 1
48 °FClear.7 mph68%29.98 "Hg10 mi
10:53 pm50 °FClear.7 mph74%29.96 "Hg10 mi
9:53 pm51 °FClear.6 mph74%29.93 "Hg10 mi
8:53 pm49 °FClear.6 mph84%29.93 "Hg10 mi
7:53 pm51 °FClear.5 mph74%29.91 "Hg10 mi
Weather by CustomWeather, © 2016

See weather overviewHow to use our weather pages